Location: Asheville, NC
(35.6000°N, 82.5500°W)
Time: 12:07:55
(UTC-04:00)

Vanguard 1 - Pass Details

Date: 10 March 2018
Orbit: 650 x 3833 km, 34.3° (Epoch: 20 June)

Event Time Altitude Azimuth Distance (km) Brightness Sun altitude
Rises 12:56:03 0° 270° (W) 7,974 14.8 50.3°
Reaches altitude 10° 13:01:39 10° 270° (W) 6,884 14.6 50.2°
Maximum altitude 13:24:03 85° 186° (S) 2,875 13.5 49.2°
Drops below altitude 10° 13:37:03 10° 99° (E) 4,319 13.4 48.3°
Sets 13:39:42 0° 99° (E) 4,995 13.6 48.1°
